contact:dominique.lefevre@mio.osupytheas.fr, maurice.libes@osupytheas.fr, didier.mallarino@osupytheas.fr
Project:EMSO http://www.emso-fr.org/EMSO-France
Depth: 2436.0 m
Title:EMSO Ligure Ouest : Data MII capteur CSTAR
DateTime,Latitude,Longitude,Instrument_Serial,Reference_Counts,Signal_Counts,Corrected_Signal_raw_counts,Calculated_Beam_c_inverse_meters,Internal_thermistor_counts
DateTime,Latitude,Longitude,Instrument_Serial,Reference_Counts,Signal_Counts,Corrected_Signal_raw_counts,Calculated_Beam_c_inverse_meters,Internal_thermistor_counts
2023-02-28T00:01:01,42.805,6.029,CST-1368DR,4369,4752,11555,01.205,551
2023-02-28T00:04:02,42.805,6.029,CST-1368DR,4369,4752,11556,01.204,551
2023-02-28T00:07:04,42.805,6.029,CST-1368DR,4369,4753,11557,01.204,551
2023-02-28T00:10:05,42.805,6.029,CST-1368DR,4369,4753,11556,01.204,551
2023-02-28T00:13:07,42.805,6.029,CST-1368DR,4369,4753,11556,01.204,551
2023-02-28T00:16:08,42.805,6.029,CST-1368DR,4369,4751,11553,01.205,551
2023-02-28T00:19:10,42.805,6.029,CST-1368DR,4369,4754,11561,01.203,551
2023-02-28T00:22:12,42.805,6.029,CST-1368DR,4369,4754,11561,01.203,551
2023-02-28T00:25:13,42.805,6.029,CST-1368DR,4368,4746,11543,01.209,551
2023-02-28T00:28:15,42.805,6.029,CST-1368DR,4368,4745,11540,01.210,551
2023-02-28T00:31:16,42.805,6.029,CST-1368DR,4368,4745,11540,01.210,551
2023-02-28T00:34:18,42.805,6.029,CST-1368DR,4368,4746,11542,01.209,551
2023-02-28T00:37:20,42.805,6.029,CST-1368DR,4368,4743,11536,01.211,551
2023-02-28T00:40:21,42.805,6.029,CST-1368DR,4368,4738,11524,01.215,551
2023-02-28T00:43:23,42.805,6.029,CST-1368DR,4368,4732,11510,01.220,551
2023-02-28T00:46:24,42.805,6.029,CST-1368DR,4369,4738,11521,01.216,551
2023-02-28T00:49:26,42.805,6.029,CST-1368DR,4368,4731,11506,01.222,551
2023-02-28T00:52:27,42.805,6.029,CST-1368DR,4369,4736,11516,01.218,551
2023-02-28T00:55:29,42.805,6.029,CST-1368DR,4368,4736,11519,01.217,551
2023-02-28T00:58:31,42.805,6.029,CST-1368DR,4368,4736,11519,01.217,551
2023-02-28T01:01:32,42.805,6.029,CST-1368DR,4369,4737,11519,01.217,551
2023-02-28T01:04:34,42.805,6.029,CST-1368DR,4368,4733,11511,01.220,551
2023-02-28T01:07:35,42.805,6.029,CST-1368DR,4368,4737,11522,01.216,551
2023-02-28T01:10:37,42.805,6.029,CST-1368DR,4368,4736,11517,01.218,551
2023-02-28T01:13:38,42.805,6.029,CST-1368DR,4368,4737,11521,01.216,551
2023-02-28T01:16:40,42.805,6.029,CST-1368DR,4368,4735,11516,01.218,551
2023-02-28T01:19:42,42.805,6.029,CST-1368DR,4368,4734,11513,01.219,551
2023-02-28T01:22:43,42.805,6.029,CST-1368DR,4368,4738,11524,01.215,551
2023-02-28T01:25:45,42.805,6.029,CST-1368DR,4368,4738,11524,01.215,551
2023-02-28T01:28:46,42.805,6.029,CST-1368DR,4368,4734,11514,01.219,551
2023-02-28T01:31:48,42.805,6.029,CST-1368DR,4368,4739,11525,01.215,551
2023-02-28T01:34:49,42.805,6.029,CST-1368DR,4368,4737,11521,01.216,551
2023-02-28T01:37:51,42.805,6.029,CST-1368DR,4368,4737,11521,01.216,551
2023-02-28T01:40:53,42.805,6.029,CST-1368DR,4368,4741,11530,01.213,551
2023-02-28T01:43:54,42.805,6.029,CST-1368DR,4368,4739,11525,01.215,551
2023-02-28T01:46:56,42.805,6.029,CST-1368DR,4368,4736,11518,01.218,551
2023-02-28T01:49:57,42.805,6.029,CST-1368DR,4368,4741,11531,01.213,551
2023-02-28T01:52:59,42.805,6.029,CST-1368DR,4368,4739,11525,01.215,551
2023-02-28T01:56:01,42.805,6.029,CST-1368DR,4368,4740,11528,01.214,551
2023-02-28T01:59:02,42.805,6.029,CST-1368DR,4368,4697,11423,01.251,551
2023-02-28T02:02:04,42.805,6.029,CST-1368DR,4368,4740,11527,01.214,551
2023-02-28T02:05:05,42.805,6.029,CST-1368DR,4369,4740,11525,01.215,551
2023-02-28T02:08:07,42.805,6.029,CST-1368DR,4369,4739,11523,01.216,551
2023-02-28T02:11:08,42.805,6.029,CST-1368DR,4368,4739,11525,01.215,551
2023-02-28T02:14:10,42.805,6.029,CST-1368DR,4368,4737,11521,01.216,551
2023-02-28T02:17:12,42.805,6.029,CST-1368DR,4368,4703,11438,01.245,551
2023-02-28T02:20:13,42.805,6.029,CST-1368DR,4368,4738,11524,01.215,551
2023-02-28T02:23:15,42.805,6.029,CST-1368DR,4368,4740,11528,01.214,551
2023-02-28T02:26:16,42.805,6.029,CST-1368DR,4368,4735,11517,01.218,551
2023-02-28T02:29:18,42.805,6.029,CST-1368DR,4368,4728,11498,01.224,551
2023-02-28T02:32:19,42.805,6.029,CST-1368DR,4368,4733,11511,01.220,551
2023-02-28T02:35:21,42.805,6.029,CST-1368DR,4368,4721,11482,01.230,551
2023-02-28T02:38:23,42.805,6.029,CST-1368DR,4368,4735,11516,01.218,551
2023-02-28T02:41:24,42.805,6.029,CST-1368DR,4368,4734,11514,01.219,551
2023-02-28T02:44:26,42.805,6.029,CST-1368DR,4368,4727,11497,01.225,551
2023-02-28T02:47:27,42.805,6.029,CST-1368DR,4368,4710,11455,01.239,551
2023-02-28T02:50:29,42.805,6.029,CST-1368DR,4368,4744,11539,01.210,551
2023-02-28T02:53:31,42.805,6.029,CST-1368DR,4368,4743,11535,01.212,551
2023-02-28T02:56:32,42.805,6.029,CST-1368DR,4368,4734,11514,01.219,551
2023-02-28T02:59:34,42.805,6.029,CST-1368DR,4369,4837,11761,01.134,551
2023-02-28T03:02:35,42.805,6.029,CST-1368DR,4369,4837,11762,01.134,551
2023-02-28T03:05:37,42.805,6.029,CST-1368DR,4369,4836,11760,01.134,551
2023-02-28T03:08:38,42.805,6.029,CST-1368DR,4369,4833,11751,01.137,551
2023-02-28T03:11:40,42.805,6.029,CST-1368DR,4369,4838,11764,01.133,551
2023-02-28T03:14:42,42.805,6.029,CST-1368DR,4369,4838,11764,01.133,551
2023-02-28T03:17:43,42.805,6.029,CST-1368DR,4369,4837,11761,01.134,551
2023-02-28T03:20:45,42.805,6.029,CST-1368DR,4369,4836,11759,01.135,551
2023-02-28T03:23:46,42.805,6.029,CST-1368DR,4369,4837,11761,01.134,551
2023-02-28T03:26:48,42.805,6.029,CST-1368DR,4369,4839,11766,01.132,551
2023-02-28T03:29:49,42.805,6.029,CST-1368DR,4369,4837,11762,01.134,551
2023-02-28T03:32:51,42.805,6.029,CST-1368DR,4369,4835,11758,01.135,551
2023-02-28T03:35:53,42.805,6.029,CST-1368DR,4369,4835,11756,01.136,551
2023-02-28T03:38:54,42.805,6.029,CST-1368DR,4369,4835,11756,01.136,551
2023-02-28T03:41:56,42.805,6.029,CST-1368DR,4369,4834,11754,01.136,551
2023-02-28T03:44:57,42.805,6.029,CST-1368DR,4369,4833,11751,01.137,551
2023-02-28T03:47:59,42.805,6.029,CST-1368DR,4369,4832,11749,01.138,551
2023-02-28T03:51:01,42.805,6.029,CST-1368DR,4369,4834,11755,01.136,551
2023-02-28T03:54:02,42.805,6.029,CST-1368DR,4369,4834,11753,01.137,551
2023-02-28T03:57:04,42.805,6.029,CST-1368DR,4369,4830,11744,01.140,551
2023-02-28T04:00:05,42.805,6.029,CST-1368DR,4369,4828,11739,01.142,551
2023-02-28T04:03:07,42.805,6.029,CST-1368DR,4369,4834,11753,01.137,551
2023-02-28T04:06:08,42.805,6.029,CST-1368DR,4369,4832,11748,01.138,551
2023-02-28T04:09:10,42.805,6.029,CST-1368DR,4369,4830,11744,01.140,551
2023-02-28T04:12:12,42.805,6.029,CST-1368DR,4369,4836,11758,01.135,551
2023-02-28T04:15:13,42.805,6.029,CST-1368DR,4369,4833,11751,01.137,551
2023-02-28T04:18:15,42.805,6.029,CST-1368DR,4369,4830,11745,01.139,551
2023-02-28T04:21:16,42.805,6.029,CST-1368DR,4369,4832,11750,01.138,551
2023-02-28T04:24:18,42.805,6.029,CST-1368DR,4369,4829,11743,01.140,551
2023-02-28T04:27:19,42.805,6.029,CST-1368DR,4369,4834,11755,01.136,551
2023-02-28T04:30:21,42.805,6.029,CST-1368DR,4369,4827,11737,01.142,551
2023-02-28T04:33:23,42.805,6.029,CST-1368DR,4369,4830,11745,01.139,551
2023-02-28T04:36:24,42.805,6.029,CST-1368DR,4369,4831,11747,01.139,551
2023-02-28T04:39:26,42.805,6.029,CST-1368DR,4369,4840,11768,01.132,551
2023-02-28T04:42:27,42.805,6.029,CST-1368DR,4369,4829,11742,01.140,551
2023-02-28T04:45:29,42.805,6.029,CST-1368DR,4369,4830,11744,01.140,551
2023-02-28T04:48:30,42.805,6.029,CST-1368DR,4369,4827,11737,01.142,551
2023-02-28T04:51:32,42.805,6.029,CST-1368DR,4369,4831,11747,01.139,551
2023-02-28T04:54:34,42.805,6.029,CST-1368DR,4369,4861,11819,01.114,551
2023-02-28T04:57:35,42.805,6.029,CST-1368DR,4369,4858,11813,01.116,551
2023-02-28T05:00:37,42.805,6.029,CST-1368DR,4369,4860,11818,01.115,551
2023-02-28T05:03:38,42.805,6.029,CST-1368DR,4369,4858,11812,01.117,551
2023-02-28T05:06:40,42.805,6.029,CST-1368DR,4369,4863,11826,01.112,551
2023-02-28T05:09:42,42.805,6.029,CST-1368DR,4369,4859,11814,01.116,551
2023-02-28T05:12:43,42.805,6.029,CST-1368DR,4369,4857,11809,01.118,551
2023-02-28T05:15:45,42.805,6.029,CST-1368DR,4369,4862,11823,01.113,551
2023-02-28T05:18:46,42.805,6.029,CST-1368DR,4369,4860,11818,01.115,551
2023-02-28T05:21:48,42.805,6.029,CST-1368DR,4369,4855,11806,01.119,551
2023-02-28T05:24:49,42.805,6.029,CST-1368DR,4369,4862,11821,01.114,551
2023-02-28T05:27:51,42.805,6.029,CST-1368DR,4369,4865,11830,01.111,551
2023-02-28T05:30:53,42.805,6.029,CST-1368DR,4369,4860,11818,01.115,551
2023-02-28T05:33:54,42.805,6.029,CST-1368DR,4369,4857,11810,01.117,551
2023-02-28T05:36:56,42.805,6.029,CST-1368DR,4369,4860,11818,01.115,551
2023-02-28T05:39:57,42.805,6.029,CST-1368DR,4369,4861,11820,01.114,551
2023-02-28T05:42:59,42.805,6.029,CST-1368DR,4369,4859,11815,01.116,551
2023-02-28T05:46:00,42.805,6.029,CST-1368DR,4369,4860,11818,01.115,551
2023-02-28T05:49:02,42.805,6.029,CST-1368DR,4369,4860,11818,01.115,551
2023-02-28T05:52:04,42.805,6.029,CST-1368DR,4369,4858,11813,01.116,551
2023-02-28T05:55:05,42.805,6.029,CST-1368DR,4369,4860,11816,01.115,551
2023-02-28T05:58:07,42.805,6.029,CST-1368DR,4369,4860,11818,01.115,551
2023-02-28T06:01:08,42.805,6.029,CST-1368DR,4369,4852,11799,01.121,551
2023-02-28T06:04:10,42.805,6.029,CST-1368DR,4369,4859,11815,01.116,551
2023-02-28T06:07:12,42.805,6.029,CST-1368DR,4369,4859,11814,01.116,551
2023-02-28T06:10:13,42.805,6.029,CST-1368DR,4369,4856,11807,01.118,551
2023-02-28T06:13:15,42.805,6.029,CST-1368DR,4369,4857,11810,01.117,551
2023-02-28T06:16:16,42.805,6.029,CST-1368DR,4369,4859,11815,01.116,551
2023-02-28T06:19:18,42.805,6.029,CST-1368DR,4369,4853,11801,01.120,551
2023-02-28T06:22:19,42.805,6.029,CST-1368DR,4369,4859,11815,01.116,551
2023-02-28T06:25:21,42.805,6.029,CST-1368DR,4369,4859,11814,01.116,551
2023-02-28T06:28:23,42.805,6.029,CST-1368DR,4369,4859,11814,01.116,551
2023-02-28T06:31:24,42.805,6.029,CST-1368DR,4369,4854,11803,01.120,551
2023-02-28T06:34:26,42.805,6.029,CST-1368DR,4369,4855,11805,01.119,551
2023-02-28T06:37:27,42.805,6.029,CST-1368DR,4369,4859,11815,01.116,551
2023-02-28T06:40:29,42.805,6.029,CST-1368DR,4369,4858,11813,01.116,551
2023-02-28T06:43:30,42.805,6.029,CST-1368DR,4369,4860,11818,01.115,551
2023-02-28T06:46:32,42.805,6.029,CST-1368DR,4369,4858,11813,01.116,551
2023-02-28T06:49:34,42.805,6.029,CST-1368DR,4369,4858,11813,01.116,551
2023-02-28T06:52:35,42.805,6.029,CST-1368DR,4369,4860,11817,01.115,551
2023-02-28T06:55:37,42.805,6.029,CST-1368DR,4369,4861,11819,01.114,551
2023-02-28T06:58:38,42.805,6.029,CST-1368DR,4369,4860,11818,01.115,551
2023-02-28T07:01:40,42.805,6.029,CST-1368DR,4369,4860,11817,01.115,551
2023-02-28T07:04:42,42.805,6.029,CST-1368DR,4369,4860,11816,01.115,551
2023-02-28T07:07:43,42.805,6.029,CST-1368DR,4369,4858,11813,01.116,551
2023-02-28T07:10:45,42.805,6.029,CST-1368DR,4369,4862,11823,01.113,551
2023-02-28T07:13:46,42.805,6.029,CST-1368DR,4369,4859,11815,01.116,551
2023-02-28T07:16:48,42.805,6.029,CST-1368DR,4369,4859,11814,01.116,551
2023-02-28T07:19:49,42.805,6.029,CST-1368DR,4369,4858,11812,01.117,551
2023-02-28T07:22:51,42.805,6.029,CST-1368DR,4369,4857,11810,01.117,551
2023-02-28T07:25:53,42.805,6.029,CST-1368DR,4369,4860,11817,01.115,551
2023-02-28T07:28:54,42.805,6.029,CST-1368DR,4369,4859,11815,01.116,551
2023-02-28T07:31:56,42.805,6.029,CST-1368DR,4369,4860,11818,01.115,551
2023-02-28T07:34:57,42.805,6.029,CST-1368DR,4369,4859,11814,01.116,551
2023-02-28T07:37:59,42.805,6.029,CST-1368DR,4369,4860,11818,01.115,551
2023-02-28T07:41:00,42.805,6.029,CST-1368DR,4369,4859,11814,01.116,551
2023-02-28T07:44:02,42.805,6.029,CST-1368DR,4369,4863,11825,01.112,551
2023-02-28T07:47:04,42.805,6.029,CST-1368DR,4369,4861,11820,01.114,551
2023-02-28T07:50:05,42.805,6.029,CST-1368DR,4369,4862,11823,01.113,551
2023-02-28T07:53:07,42.805,6.029,CST-1368DR,4369,4865,11830,01.111,551
2023-02-28T07:56:08,42.805,6.029,CST-1368DR,4369,4864,11828,01.111,551
2023-02-28T07:59:10,42.805,6.029,CST-1368DR,4369,4863,11826,01.112,551
2023-02-28T08:02:12,42.805,6.029,CST-1368DR,4369,4862,11823,01.113,551
2023-02-28T08:05:13,42.805,6.029,CST-1368DR,4369,4865,11829,01.111,551
2023-02-28T08:08:15,42.805,6.029,CST-1368DR,4369,4865,11829,01.111,551
2023-02-28T08:11:16,42.805,6.029,CST-1368DR,4369,4864,11828,01.111,551
2023-02-28T08:14:18,42.805,6.029,CST-1368DR,4369,4864,11827,01.112,551
2023-02-28T08:17:19,42.805,6.029,CST-1368DR,4369,4864,11827,01.112,551
2023-02-28T08:20:21,42.805,6.029,CST-1368DR,4369,4867,11834,01.109,551
2023-02-28T08:23:23,42.805,6.029,CST-1368DR,4369,4864,11826,01.112,551
2023-02-28T08:26:24,42.805,6.029,CST-1368DR,4369,4863,11826,01.112,551
2023-02-28T08:29:26,42.805,6.029,CST-1368DR,4369,4865,11829,01.111,551
2023-02-28T08:32:27,42.805,6.029,CST-1368DR,4369,4861,11821,01.114,551
2023-02-28T08:35:29,42.805,6.029,CST-1368DR,4369,4855,11804,01.119,551
2023-02-28T08:38:30,42.805,6.029,CST-1368DR,4369,4865,11829,01.111,551
2023-02-28T08:41:32,42.805,6.029,CST-1368DR,4369,4865,11829,01.111,551
2023-02-28T08:44:34,42.805,6.029,CST-1368DR,4369,4864,11828,01.111,551
2023-02-28T08:47:35,42.805,6.029,CST-1368DR,4369,4864,11827,01.112,551
2023-02-28T08:50:37,42.805,6.029,CST-1368DR,4369,4865,11830,01.111,551
2023-02-28T08:53:38,42.805,6.029,CST-1368DR,4369,4864,11826,01.112,551
2023-02-28T08:56:40,42.805,6.029,CST-1368DR,4369,4865,11829,01.111,551
2023-02-28T08:59:42,42.805,6.029,CST-1368DR,4369,4865,11829,01.111,551
2023-02-28T09:02:43,42.805,6.029,CST-1368DR,4369,4866,11832,01.110,551
2023-02-28T09:05:45,42.805,6.029,CST-1368DR,4369,4865,11829,01.111,551
2023-02-28T09:08:46,42.805,6.029,CST-1368DR,4369,4865,11829,01.111,551
2023-02-28T09:11:48,42.805,6.029,CST-1368DR,4369,4869,11840,01.107,551
2023-02-28T09:14:49,42.805,6.029,CST-1368DR,4369,4863,11825,01.112,551
2023-02-28T09:17:51,42.805,6.029,CST-1368DR,4369,4867,11835,01.109,551
2023-02-28T09:20:53,42.805,6.029,CST-1368DR,4369,4865,11830,01.111,551
2023-02-28T09:23:54,42.805,6.029,CST-1368DR,4369,4865,11830,01.111,551
2023-02-28T09:26:56,42.805,6.029,CST-1368DR,4369,4864,11827,01.112,551
2023-02-28T09:29:57,42.805,6.029,CST-1368DR,4369,4870,11842,01.107,551
2023-02-28T09:32:59,42.805,6.029,CST-1368DR,4369,4869,11838,01.108,551
2023-02-28T09:36:00,42.805,6.029,CST-1368DR,4369,4864,11827,01.112,551
2023-02-28T09:39:02,42.805,6.029,CST-1368DR,4369,4864,11826,01.112,551
2023-02-28T09:42:04,42.805,6.029,CST-1368DR,4369,4864,11827,01.112,551
2023-02-28T09:45:05,42.805,6.029,CST-1368DR,4369,4858,11813,01.116,551
2023-02-28T09:48:07,42.805,6.029,CST-1368DR,4369,4865,11830,01.111,551
2023-02-28T09:51:08,42.805,6.029,CST-1368DR,4369,4862,11823,01.113,551
2023-02-28T09:54:10,42.805,6.029,CST-1368DR,4369,4864,11828,01.111,551
2023-02-28T09:57:12,42.805,6.029,CST-1368DR,4369,4865,11830,01.111,551
2023-02-28T10:00:13,42.805,6.029,CST-1368DR,4369,4864,11828,01.111,551
2023-02-28T10:03:15,42.805,6.029,CST-1368DR,4369,4851,11796,01.122,551
2023-02-28T10:06:16,42.805,6.029,CST-1368DR,4369,4869,11840,01.107,551
2023-02-28T10:09:18,42.805,6.029,CST-1368DR,4369,4863,11825,01.112,551
2023-02-28T10:12:19,42.805,6.029,CST-1368DR,4369,4864,11827,01.112,551
2023-02-28T10:15:21,42.805,6.029,CST-1368DR,4369,4866,11832,01.110,551
2023-02-28T10:18:23,42.805,6.029,CST-1368DR,4369,4865,11829,01.111,551
2023-02-28T10:21:24,42.805,6.029,CST-1368DR,4369,4861,11820,01.114,551
2023-02-28T10:24:26,42.805,6.029,CST-1368DR,4369,4862,11823,01.113,551
2023-02-28T10:27:27,42.805,6.029,CST-1368DR,4369,4862,11823,01.113,551
2023-02-28T10:30:29,42.805,6.029,CST-1368DR,4369,4867,11833,01.110,551
2023-02-28T10:33:30,42.805,6.029,CST-1368DR,4369,4863,11826,01.112,551
2023-02-28T10:36:32,42.805,6.029,CST-1368DR,4369,4863,11825,01.112,551
2023-02-28T10:39:34,42.805,6.029,CST-1368DR,4369,4864,11826,01.112,551
2023-02-28T10:42:35,42.805,6.029,CST-1368DR,4369,4863,11825,01.112,551
2023-02-28T10:45:37,42.805,6.029,CST-1368DR,4369,4864,11828,01.111,551
2023-02-28T10:48:38,42.805,6.029,CST-1368DR,4369,4863,11825,01.112,551
2023-02-28T10:51:40,42.805,6.029,CST-1368DR,4369,4864,11827,01.112,551
2023-02-28T10:54:41,42.805,6.029,CST-1368DR,4369,4863,11825,01.112,551
2023-02-28T10:57:43,42.805,6.029,CST-1368DR,4369,4866,11831,01.110,551
2023-02-28T11:00:45,42.805,6.029,CST-1368DR,4369,4861,11821,01.114,551
2023-02-28T11:03:46,42.805,6.029,CST-1368DR,4369,4863,11825,01.112,551
2023-02-28T11:06:48,42.805,6.029,CST-1368DR,4369,4866,11831,01.110,551
2023-02-28T11:09:49,42.805,6.029,CST-1368DR,4369,4870,11842,01.107,551
2023-02-28T11:12:51,42.805,6.029,CST-1368DR,4369,4868,11836,01.109,551
2023-02-28T11:15:53,42.805,6.029,CST-1368DR,4369,4863,11824,01.113,551
2023-02-28T11:18:54,42.805,6.029,CST-1368DR,4369,4860,11818,01.115,551
2023-02-28T11:21:56,42.805,6.029,CST-1368DR,4369,4863,11825,01.112,551
2023-02-28T11:24:57,42.805,6.029,CST-1368DR,4369,4863,11824,01.113,551
2023-02-28T11:27:59,42.805,6.029,CST-1368DR,4369,4864,11827,01.112,551
2023-02-28T11:31:00,42.805,6.029,CST-1368DR,4369,4861,11820,01.114,551
2023-02-28T11:34:02,42.805,6.029,CST-1368DR,4369,4864,11828,01.111,551
2023-02-28T11:37:04,42.805,6.029,CST-1368DR,4369,4863,11825,01.112,551
2023-02-28T11:40:05,42.805,6.029,CST-1368DR,4369,4862,11823,01.113,551
2023-02-28T11:43:07,42.805,6.029,CST-1368DR,4369,4863,11826,01.112,551
2023-02-28T11:46:08,42.805,6.029,CST-1368DR,4369,4863,11824,01.113,551
2023-02-28T11:49:10,42.805,6.029,CST-1368DR,4369,4863,11824,01.113,551
2023-02-28T11:52:11,42.805,6.029,CST-1368DR,4369,4865,11829,01.111,551
2023-02-28T11:55:13,42.805,6.029,CST-1368DR,4369,4863,11825,01.112,551
2023-02-28T11:58:15,42.805,6.029,CST-1368DR,4368,4863,11828,01.111,551
2023-02-28T12:01:16,42.805,6.029,CST-1368DR,4368,4863,11828,01.111,551
2023-02-28T12:04:18,42.805,6.029,CST-1368DR,4368,4865,11831,01.110,551
2023-02-28T12:07:19,42.805,6.029,CST-1368DR,4368,4865,11831,01.110,551
2023-02-28T12:10:21,42.805,6.029,CST-1368DR,4368,4865,11832,01.110,551
2023-02-28T12:13:23,42.805,6.029,CST-1368DR,4368,4864,11831,01.110,551
2023-02-28T12:16:24,42.805,6.029,CST-1368DR,4368,4867,11838,01.108,551
2023-02-28T12:19:26,42.805,6.029,CST-1368DR,4368,4867,11837,01.108,551
2023-02-28T12:22:27,42.805,6.029,CST-1368DR,4368,4865,11832,01.110,551
2023-02-28T12:25:29,42.805,6.029,CST-1368DR,4368,4863,11828,01.111,551
2023-02-28T12:28:30,42.805,6.029,CST-1368DR,4368,4863,11828,01.111,551
2023-02-28T12:31:32,42.805,6.029,CST-1368DR,4368,4864,11829,01.111,551
2023-02-28T12:34:34,42.805,6.029,CST-1368DR,4368,4864,11831,01.110,551
2023-02-28T12:37:35,42.805,6.029,CST-1368DR,4369,4864,11827,01.112,551
2023-02-28T12:40:37,42.805,6.029,CST-1368DR,4369,4864,11828,01.111,551
2023-02-28T12:43:38,42.805,6.029,CST-1368DR,4369,4863,11825,01.112,551
2023-02-28T12:46:40,42.805,6.029,CST-1368DR,4369,4864,11827,01.112,551
2023-02-28T12:49:41,42.805,6.029,CST-1368DR,4369,4866,11831,01.110,551
2023-02-28T12:52:43,42.805,6.029,CST-1368DR,4369,4865,11830,01.111,551
2023-02-28T12:55:45,42.805,6.029,CST-1368DR,4369,4861,11819,01.114,551
2023-02-28T12:58:46,42.805,6.029,CST-1368DR,4369,4865,11829,01.111,551
2023-02-28T13:01:48,42.805,6.029,CST-1368DR,4369,4867,11834,01.109,551
2023-02-28T13:04:49,42.805,6.029,CST-1368DR,4369,4868,11836,01.109,551
2023-02-28T13:07:51,42.805,6.029,CST-1368DR,4369,4864,11828,01.111,551
2023-02-28T13:10:53,42.805,6.029,CST-1368DR,4369,4865,11829,01.111,551
2023-02-28T13:13:54,42.805,6.029,CST-1368DR,4369,4864,11827,01.112,551
2023-02-28T13:16:56,42.805,6.029,CST-1368DR,4369,4863,11826,01.112,551
2023-02-28T13:19:57,42.805,6.029,CST-1368DR,4369,4864,11828,01.111,551
2023-02-28T13:22:59,42.805,6.029,CST-1368DR,4369,4861,11821,01.114,551
2023-02-28T13:26:00,42.805,6.029,CST-1368DR,4369,4861,11820,01.114,551
2023-02-28T13:29:02,42.805,6.029,CST-1368DR,4369,4861,11820,01.114,551
2023-02-28T13:32:04,42.805,6.029,CST-1368DR,4369,4862,11821,01.114,551
2023-02-28T13:35:05,42.805,6.029,CST-1368DR,4369,4861,11821,01.114,551
2023-02-28T13:38:07,42.805,6.029,CST-1368DR,4369,4859,11815,01.116,551
2023-02-28T13:41:08,42.805,6.029,CST-1368DR,4369,4865,11829,01.111,551
2023-02-28T13:44:10,42.805,6.029,CST-1368DR,4369,4860,11816,01.115,551
2023-02-28T13:47:11,42.805,6.029,CST-1368DR,4369,4857,11810,01.117,551
2023-02-28T13:50:13,42.805,6.029,CST-1368DR,4369,4858,11813,01.116,551
2023-02-28T13:53:15,42.805,6.029,CST-1368DR,4369,4858,11812,01.117,551
2023-02-28T13:56:16,42.805,6.029,CST-1368DR,4369,4858,11812,01.117,551
2023-02-28T13:59:18,42.805,6.029,CST-1368DR,4368,4858,11815,01.116,551
2023-02-28T14:02:19,42.805,6.029,CST-1368DR,4369,4857,11810,01.117,551
2023-02-28T14:05:21,42.805,6.029,CST-1368DR,4369,4858,11813,01.116,551
2023-02-28T14:08:22,42.805,6.029,CST-1368DR,4369,4857,11810,01.117,551
2023-02-28T14:11:24,42.805,6.029,CST-1368DR,4369,4858,11812,01.117,551
2023-02-28T14:14:26,42.805,6.029,CST-1368DR,4369,4858,11813,01.116,551
2023-02-28T14:17:27,42.805,6.029,CST-1368DR,4369,4860,11817,01.115,551
2023-02-28T14:20:29,42.805,6.029,CST-1368DR,4369,4858,11812,01.117,551
2023-02-28T14:23:30,42.805,6.029,CST-1368DR,4369,4854,11802,01.120,551
2023-02-28T14:26:32,42.805,6.029,CST-1368DR,4369,4858,11812,01.117,551
2023-02-28T14:29:34,42.805,6.029,CST-1368DR,4369,4858,11812,01.117,551
2023-02-28T14:32:35,42.805,6.029,CST-1368DR,4369,4858,11813,01.116,551
2023-02-28T14:35:37,42.805,6.029,CST-1368DR,4369,4858,11813,01.116,551
2023-02-28T14:38:38,42.805,6.029,CST-1368DR,4369,4857,11810,01.117,551
2023-02-28T14:41:40,42.805,6.029,CST-1368DR,4369,4858,11813,01.116,551
2023-02-28T14:44:41,42.805,6.029,CST-1368DR,4369,4858,11812,01.117,551
2023-02-28T14:47:43,42.805,6.029,CST-1368DR,4369,4857,11811,01.117,551
2023-02-28T14:50:45,42.805,6.029,CST-1368DR,4368,4807,11691,01.158,551
2023-02-28T14:53:46,42.805,6.029,CST-1368DR,4369,4860,11816,01.115,551
2023-02-28T14:56:48,42.805,6.029,CST-1368DR,4369,4858,11812,01.117,551
2023-02-28T14:59:49,42.805,6.029,CST-1368DR,4369,4859,11815,01.116,551
2023-02-28T15:02:51,42.805,6.029,CST-1368DR,4369,4859,11815,01.116,551
2023-02-28T15:05:52,42.805,6.029,CST-1368DR,4369,4858,11812,01.117,551
2023-02-28T15:08:54,42.805,6.029,CST-1368DR,4369,4857,11809,01.118,551
2023-02-28T15:11:56,42.805,6.029,CST-1368DR,4368,4854,11804,01.119,551
2023-02-28T15:14:57,42.805,6.029,CST-1368DR,4369,4858,11813,01.116,551
2023-02-28T15:17:59,42.805,6.029,CST-1368DR,4369,4858,11813,01.116,551
2023-02-28T15:21:00,42.805,6.029,CST-1368DR,4369,4858,11813,01.116,551
2023-02-28T15:24:02,42.805,6.029,CST-1368DR,4369,4858,11813,01.116,551
2023-02-28T15:27:04,42.805,6.029,CST-1368DR,4369,4858,11812,01.117,551
2023-02-28T15:30:05,42.805,6.029,CST-1368DR,4369,4857,11811,01.117,551
2023-02-28T15:33:07,42.805,6.029,CST-1368DR,4369,4857,11810,01.117,551
2023-02-28T15:36:08,42.805,6.029,CST-1368DR,4369,4856,11809,01.118,551
2023-02-28T15:39:10,42.805,6.029,CST-1368DR,4369,4860,11818,01.115,551
2023-02-28T15:42:11,42.805,6.029,CST-1368DR,4369,4855,11804,01.119,551
2023-02-28T15:45:13,42.805,6.029,CST-1368DR,4369,4857,11811,01.117,551
2023-02-28T15:48:15,42.805,6.029,CST-1368DR,4369,4857,11809,01.118,551
2023-02-28T15:51:16,42.805,6.029,CST-1368DR,4369,4853,11801,01.120,551
2023-02-28T15:54:18,42.805,6.029,CST-1368DR,4369,4856,11809,01.118,551
2023-02-28T15:57:19,42.805,6.029,CST-1368DR,4369,4856,11809,01.118,551
2023-02-28T16:00:21,42.805,6.029,CST-1368DR,4369,4856,11807,01.118,551
2023-02-28T16:03:22,42.805,6.029,CST-1368DR,4368,4854,11806,01.119,551
2023-02-28T16:06:24,42.805,6.029,CST-1368DR,4369,4854,11802,01.120,551
2023-02-28T16:09:26,42.805,6.029,CST-1368DR,4369,4854,11804,01.119,551
2023-02-28T16:12:27,42.805,6.029,CST-1368DR,4368,4857,11813,01.116,551
2023-02-28T16:15:29,42.805,6.029,CST-1368DR,4369,4853,11800,01.121,551
2023-02-28T16:18:30,42.805,6.029,CST-1368DR,4369,4855,11806,01.119,551
2023-02-28T16:21:32,42.805,6.029,CST-1368DR,4369,4852,11798,01.121,551
2023-02-28T16:24:34,42.805,6.029,CST-1368DR,4369,4855,11806,01.119,551
2023-02-28T16:27:35,42.805,6.029,CST-1368DR,4369,4857,11810,01.117,551
2023-02-28T16:30:37,42.805,6.029,CST-1368DR,4369,4855,11805,01.119,551
2023-02-28T16:33:38,42.805,6.029,CST-1368DR,4368,4855,11807,01.118,551
2023-02-28T16:36:40,42.805,6.029,CST-1368DR,4368,4855,11808,01.118,551